Hourly Data Report for August 04, 2006

TORONTO CITY
ONTARIO

43°40'00.000" N
79°24'00.000" W
112.50 m
6158355
71508
XTO

Download Data

Hourly Data (August 2006)
Hourly Data Report for August 4, 2006
TIME
LST
Temp Definition
°C
Dew Point Definition
°C
Rel Hum Definition
%
Precip. Amount Definition
mm

Wind Dir Definition
10's deg

Wind Spd Definition
km/h
Visibility Definition
km
Stn Press Definition
kPa
Hmdx Definition


Wind Chill Definition


Weather Definition


00:00 21.3 19.2 88   LegendMM LegendMM   99.67 28   LegendNANA
01:00 21.0 18.5 86   LegendMM LegendMM   99.67 27   LegendNANA
02:00 20.6 17.8 84   LegendMM LegendMM   99.70 26   LegendNANA
03:00 20.5 17.4 82   LegendMM LegendMM   99.72 26   LegendNANA
04:00 20.0 17.9 88   LegendMM LegendMM   99.78 26   LegendNANA
05:00 19.6 17.2 86   LegendMM LegendMM   99.83     LegendNANA
06:00 18.9 17.0 89   LegendMM LegendMM   99.89     LegendNANA
07:00 20.8 17.2 80   LegendMM LegendMM   99.94 26   LegendNANA
08:00 22.9 17.9 73   LegendMM LegendMM   99.99 29   LegendNANA
09:00 24.6 17.2 63   LegendMM LegendMM   100.02 30   LegendNANA
10:00 26.2 16.3 54   LegendMM LegendMM   100.06 31   LegendNANA
11:00 27.6 15.6 48   LegendMM LegendMM   100.07 32   LegendNANA
12:00 28.9 18.3 53   LegendMM LegendMM   100.07 35   LegendNANA
13:00 29.1 15.7 44   LegendMM LegendMM   100.06 34   LegendNANA
14:00 29.2 15.9 45   LegendMM LegendMM   100.03 34   LegendNANA
15:00 29.4 15.3 42   LegendMM LegendMM   100.02 34   LegendNANA
16:00 29.6 14.4 40   LegendMM LegendMM   100.02 33   LegendNANA
17:00 28.7 14.6 42   LegendMM LegendMM   100.04 32   LegendNANA
18:00 27.8 12.7 39   LegendMM LegendMM   100.10 30   LegendNANA
19:00 26.4 13.2 44   LegendMM LegendMM   100.16 29   LegendNANA
20:00 24.9 12.1 45   LegendMM LegendMM   100.25 27   LegendNANA
21:00 23.3 12.3 50   LegendMM LegendMM   100.33 26   LegendNANA
22:00 22.2 14.2 60   LegendMM LegendMM   100.36 26   LegendNANA
23:00 21.1 14.5 66   LegendMM LegendMM   100.39 25   LegendNANA

Notes on Data Quality.

Legend

  • E = Estimated
  • M = Missing
  • NA = Not Available*
  • [empty] = Indicates an unobserved value
Date modified: